GW4341 Weather Reports


time (UTC)temp
F
wind
direction
speed
knots
gust
knots
rain 1hr
in
rain 24hr
in
rain mn
in
humidity
%
barometer
mb
20260906230908 75 141 6.1 7.0 0.00 0.00 0.00 29 1019.1
20260906230403 75 146 6.1 9.6 0.00 0.00 0.00 27 1019.1
20260906225901 76 155 5.2 7.0 0.00 0.00 0.00 28 1019.1
20260906225357 76 130 5.2 7.0 0.00 0.00 0.00 26 1019.5
20260906224853 77 185 6.1 7.8 0.00 0.00 0.00 26 1019.3
20260906224349 77 144 7.0 7.8 0.00 0.00 0.00 26 1019.2
20260906223845 77 172 7.0 7.8 0.00 0.00 0.00 26 1019.3
20260906223341 77 167 7.8 9.6 0.00 0.00 0.00 26 1019.6
20260906222838 77 203 7.8 8.7 0.00 0.00 0.00 25 1019.3
20260906222332 77 168 7.0 7.8 0.00 0.00 0.00 26 1019.3
20260906221830 78 126 7.8 8.7 0.00 0.00 0.00 24 1019.2
20260906221330 78 204 6.1 7.0 0.00 0.00 0.00 24 1019.5
20260906220825 77 214 5.2 7.0 0.00 0.00 0.00 24 1019.5
20260906220321 78 176 7.8 8.7 0.00 0.00 0.00 24 1019.5
20260906215819 78 175 9.6 11.3 0.00 0.00 0.00 25 1019.3
20260906215314 80 148 8.7 9.6 0.00 0.00 0.00 23 1019.5
20260906214812 79 159 10.4 13.9 0.00 0.00 0.00 23 1019.7
20260906214307 76 158 4.3 7.0 0.00 0.00 0.00 24 1019.8
20260906213807 78 207 10.4 12.2 0.00 0.00 0.00 23 1020.1
20260906213306 78 226 9.6 13.9 0.00 0.00 0.00 23 1020.2
20260906212758 77 185 5.2 7.0 0.00 0.00 0.00 23 1020.1
20260906212253 78 189 7.8 8.7 0.00 0.00 0.00 24 1019.9
20260906211753 78 187 10.4 12.2 0.00 0.00 0.00 23 1020.3
20260906211248 78 228 10.4 12.2 0.00 0.00 0.00 23 1020.3
20260906210743 78 177 9.6 12.2 0.00 0.00 0.00 23 1020.2
20260906210238 78 203 12.2 13.9 0.00 0.00 0.00 23 1020.3
20260906205733 77 188 8.7 11.3 0.00 0.00 0.00 23 1020.4
20260906205231 79 189 7.8 8.7 0.00 0.00 0.00 24 1020.3
20260906204730 77 142 7.0 7.8 0.00 0.00 0.00 24 1020.4
20260906204229 77 148 7.8 8.7 0.00 0.00 0.00 24 1020.7
20260906203729 76 174 10.4 12.2 0.00 0.00 0.00 25 1020.7
20260906203224 77 210 8.7 11.3 0.00 0.00 0.00 23 1020.4
20260906202721 77 176 9.6 12.2 0.00 0.00 0.00 25 1020.4
20260906202220 77 150 7.8 9.6 0.00 0.00 0.00 25 1020.3
20260906201715 77 177 7.0 7.8 0.00 0.00 0.00 25 1020.4
20260906201215 76 163 12.2 14.8 0.00 0.00 0.00 26 1020.6
20260906200711 78 191 6.1 7.8 0.00 0.00 0.00 24 1020.8
20260906200206 76 106 10.4 12.2 0.00 0.00 0.00 25 1020.6
20260906195656 77 153 7.8 9.6 0.00 0.00 0.00 25 1020.6
20260906195153 78 194 9.6 11.3 0.00 0.00 0.00 25 1020.8
20260906194648 78 204 5.2 7.0 0.00 0.00 0.00 24 1020.4
20260906194143 76 216 7.8 9.6 0.00 0.00 0.00 25 1020.4
20260906193638 76 180 7.8 7.8 0.00 0.00 0.00 25 1020.8
20260906193133 75 149 7.0 8.7 0.00 0.00 0.00 26 1020.8
20260906192629 75 189 7.0 7.8 0.00 0.00 0.00 26 1021.0
20260906192128 75 163 7.8 12.2 0.00 0.00 0.00 26 1021.0
20260906191624 75 200 5.2 7.0 0.00 0.00 0.00 26 1021.4
20260906191122 76 161 8.7 9.6 0.00 0.00 0.00 26 1021.2
20260906190617 74 112 9.6 11.3 0.00 0.00 0.00 26 1021.5
20260906190112 75 170 7.0 8.7 0.00 0.00 0.00 26 1021.8
20260906185610 75 133 2.6 2.6 0.00 0.00 0.00 26 1021.5
20260906185109 75 121 9.6 9.6 0.00 0.00 0.00 26 1021.9
20260906184604 75 179 5.2 8.7 0.00 0.00 0.00 26 1021.8
20260906184100 75 190 10.4 12.2 0.00 0.00 0.00 26 1022.2
20260906183555 75 123 3.5 5.2 0.00 0.00 0.00 25 1022.0
20260906183052 74 130 3.5 5.2 0.00 0.00 0.00 27 1022.2
20260906182552 74 140 7.0 8.7 0.00 0.00 0.00 27 1022.3
20260906182048 74 129 7.0 8.7 0.00 0.00 0.00 27 1022.4
20260906181543 74 111 9.6 13.0 0.00 0.00 0.00 27 1022.4
20260906181039 72 170 7.8 8.7 0.00 0.00 0.00 28 1022.4
20260906180534 74 127 6.1 7.8 0.00 0.00 0.00 28 1022.5
20260906180033 73 187 8.7 9.6 0.00 0.00 0.00 27 1022.3
20260906175527 73 167 5.2 6.1 0.00 0.00 0.00 27 1022.5
20260906175027 73 146 9.6 12.2 0.00 0.00 0.00 27 1022.6
20260906174525 73 184 8.7 11.3 0.00 0.00 0.00 29 1022.6
20260906174020 73 154 7.8 9.6 0.00 0.00 0.00 28 1022.9
20260906173515 72 127 5.2 7.0 0.00 0.00 0.00 30 1022.8
20260906173011 71 140 2.6 2.6 0.00 0.00 0.00 29 1022.9
20260906172510 71 150 4.3 5.2 0.00 0.00 0.00 31 1023.0
20260906172006 71 144 4.3 6.1 0.00 0.00 0.00 30 1023.0
20260906171500 71 124 3.5 5.2 0.00 0.00 0.00 31 1023.0
20260906170955 69 147 2.6 5.2 0.00 0.00 0.00 33 1023.3
20260906170452 70 142 5.2 6.1 0.00 0.00 0.00 32 1023.3
20260906165949 69 175 1.7 2.6 0.00 0.00 0.00 33 1023.4
20260906165443 69 164 2.6 2.6 0.00 0.00 0.00 31 1023.4
20260906164938 69 120 3.5 3.5 0.00 0.00 0.00 31 1023.3
20260906164436 69 169 2.6 3.5 0.00 0.00 0.00 31 1023.3
20260906163933 68 127 2.6 3.5 0.00 0.00 0.00 33 1023.4
20260906163428 67 144 1.7 1.7 0.00 0.00 0.00 34 1023.3
20260906162926 67 104 1.7 1.7 0.00 0.00 0.00 35 1023.4
20260906162425 66 100 2.6 3.5 0.00 0.00 0.00 36 1023.6
20260906161920 66 87 2.6 2.6 0.00 0.00 0.00 36 1023.5
20260906161419 65 113 2.6 2.6 0.00 0.00 0.00 36 1023.5
20260906160918 65 114 0.9 0.9 0.00 0.00 0.00 35 1023.5
20260906160407 66 49 1.7 1.7 0.00 0.00 0.00 35 1023.6
20260906155905 65 107 0.0 0.0 0.00 0.00 0.00 35 1023.6
20260906155359 65 97 1.7 1.7 0.00 0.00 0.00 36 1023.6
20260906154856 63 110 0.0 0.0 0.00 0.00 0.00 35 1023.7
20260906154354 62 99 1.7 1.7 0.00 0.00 0.00 38 1023.7
20260906153854 62 102 1.7 1.7 0.00 0.00 0.00 39 1024.0
20260906153353 60 132 0.9 0.9 0.00 0.00 0.00 39 1023.7
20260906152848 59 91 0.9 0.9 0.00 0.00 0.00 40 1024.0
20260906152343 59 114 0.9 1.7 0.00 0.00 0.00 41 1024.0
20260906151842 59 107 0.0 0.0 0.00 0.00 0.00 41 1023.7
20260906151338 58 108 0.9 0.9 0.00 0.00 0.00 41 1024.1
20260906150833 57 106 0.9 0.9 0.00 0.00 0.00 43 1024.1
20260906150329 56 102 0.9 1.7 0.00 0.00 0.00 44 1024.0
20260906145828 55 121 1.7 2.6 0.00 0.00 0.00 45 1024.1
20260906145326 54 107 0.9 0.9 0.00 0.00 0.00 44 1024.1
20260906144822 53 116 1.7 1.7 0.00 0.00 0.00 45 1024.2
20260906144317 52 121 0.0 0.0 0.00 0.00 0.00 45 1024.1
20260906143816 50 144 0.9 0.9 0.00 0.00 0.00 48 1024.1
20260906143313 51 142 1.7 1.7 0.00 0.00 0.00 47 1024.0
20260906142809 51 101 0.0 0.0 0.00 0.00 0.00 46 1024.0
20260906142306 50 107 0.0 0.0 0.00 0.00 0.00 48 1024.1
20260906141802 47 101 0.0 0.0 0.00 0.00 0.00 53 1024.1
20260906141256 45 85 0.0 0.9 0.00 0.00 0.00 56 1023.9
20260906140755 44 75 0.9 0.9 0.00 0.00 0.00 58 1024.0
20260906140250 43 357 1.7 1.7 0.00 0.00 0.00 58 1024.1
20260906135748 42 46 0.9 0.9 0.00 0.00 0.00 59 1023.9
20260906135238 42 2 1.7 2.6 0.00 0.00 0.00 60 1023.9
20260906134734 42 67 0.9 0.9 0.00 0.00 0.00 59 1023.9
20260906134229 41 28 1.7 1.7 0.00 0.00 0.00 60 1023.7
20260906133725 41 6 3.5 3.5 0.00 0.00 0.00 61 1023.5
20260906133220 40 356 0.9 1.7 0.00 0.00 0.00 61 1023.7
20260906132715 39 354 1.7 2.6 0.00 0.00 0.00 61 1023.7
20260906132211 39 355 1.7 1.7 0.00 0.00 0.00 62 1023.6
20260906131706 39 15 1.7 1.7 0.00 0.00 0.00 62 1023.6
20260906131200 38 49 0.9 0.9 0.00 0.00 0.00 63 1023.7
20260906130656 38 18 1.7 1.7 0.00 0.00 0.00 63 1023.5
20260906130151 39 86 0.0 0.0 0.00 0.00 0.00 63 1023.7
20260906125649 38 83 0.0 0.0 0.00 0.00 0.00 64 1023.5
20260906125148 38 81 1.7 1.7 0.00 0.00 0.00 63 1023.6
20260906124643 39 6 1.7 2.6 0.00 0.00 0.00 62 1023.3
20260906124133 38 334 2.6 2.6 0.00 0.00 0.00 62 1023.6
20260906123632 38 73 1.7 1.7 0.00 0.00 0.00 62 1023.5
20260906123127 38 329 2.6 2.6 0.00 0.00 0.00 63 1023.5
20260906122626 39 333 1.7 1.7 0.00 0.00 0.00 61 1023.3
20260906122121 39 352 1.7 1.7 0.00 0.00 0.00 60 1023.4
20260906121618 39 35 2.6 2.6 0.00 0.00 0.00 62 1023.3
20260906121114 39 0 3.5 3.5 0.00 0.00 0.00 63 1023.0
20260906120609 39 88 0.0 0.0 0.00 0.00 0.00 62 1023.1
20260906120107 39 16 1.7 1.7 0.00 0.00 0.00 63 1023.3
20260906115606 39 66 0.9 0.9 0.00 0.00 0.00 64 1023.3
20260906115102 39 66 1.7 1.7 0.00 0.00 0.00 64 1023.7
20260906114601 39 336 1.7 1.7 0.00 0.00 0.00 63 1023.4
20260906114057 39 332 2.6 2.6 0.00 0.00 0.00 65 1023.3
20260906113556 40 83 0.0 0.9 0.00 0.00 0.00 62 1023.5
20260906113052 40 359 2.6 2.6 0.00 0.00 0.00 61 1023.4
20260906112551 40 99 0.0 0.0 0.00 0.00 0.00 62 1023.5
20260906112048 40 87 0.0 0.0 0.00 0.00 0.00 62 1023.5
20260906111548 40 60 1.7 1.7 0.00 0.00 0.00 60 1023.7
20260906111043 40 10 1.7 1.7 0.00 0.00 0.00 61 1023.3
20260906110543 40 48 0.9 1.7 0.00 0.00 0.00 60 1023.3
20260906110042 40 68 0.9 0.9 0.00 0.00 0.00 60 1023.3
20260906105537 40 82 0.0 0.9 0.00 0.00 0.00 61 1023.3
20260906105033 41 3 2.6 2.6 0.00 0.00 0.00 59 1023.1
20260906104531 42 3 1.7 1.7 0.00 0.00 0.00 59 1023.4
20260906104026 42 68 0.9 0.9 0.00 0.00 0.00 58 1022.9
20260906103524 41 61 0.9 0.9 0.00 0.00 0.00 58 1023.0
20260906103020 41 55 0.9 0.9 0.00 0.00 0.00 58 1023.0
20260906102520 41 79 1.7 1.7 0.00 0.00 0.00 58 1023.0
20260906102015 42 80 0.0 0.9 0.00 0.00 0.00 57 1023.0
20260906101510 42 40 0.9 1.7 0.00 0.00 0.00 56 1023.1
20260906101005 43 60 1.7 2.6 0.00 0.00 0.00 56 1023.0
20260906100500 43 21 2.6 3.5 0.00 0.00 0.00 55 1023.0
20260906100000 42 78 0.9 0.9 0.00 0.00 0.00 56 1022.8
20260906095455 42 85 0.9 1.7 0.00 0.00 0.00 55 1022.8
20260906094950 43 1 2.6 2.6 0.00 0.00 0.00 55 1022.9
20260906094449 43 65 1.7 1.7 0.00 0.00 0.00 55 1022.9
20260906093945 43 344 1.7 1.7 0.00 0.00 0.00 56 1022.9
20260906093441 43 92 0.9 1.7 0.00 0.00 0.00 56 1023.0
20260906092936 43 18 0.9 0.9 0.00 0.00 0.00 56 1022.6
20260906092435 43 77 0.0 0.0 0.00 0.00 0.00 56 1023.0
20260906091931 43 68 1.7 1.7 0.00 0.00 0.00 55 1022.8
20260906091426 43 41 1.7 1.7 0.00 0.00 0.00 56 1022.8
20260906090923 43 89 0.0 0.0 0.00 0.00 0.00 57 1022.8
20260906090418 43 99 0.0 0.0 0.00 0.00 0.00 57 1022.8
20260906085913 42 92 0.0 0.0 0.00 0.00 0.00 58 1022.8
20260906085412 42 83 0.0 0.9 0.00 0.00 0.00 58 1023.0
20260906084911 43 19 1.7 1.7 0.00 0.00 0.00 60 1022.8
20260906084406 43 349 2.6 2.6 0.00 0.00 0.00 62 1022.8
20260906083905 44 61 0.9 0.9 0.00 0.00 0.00 58 1022.8
20260906083401 45 325 1.7 2.6 0.00 0.00 0.00 54 1022.6
20260906082900 46 351 2.6 2.6 0.00 0.00 0.00 54 1023.0
20260906082400 45 107 0.0 0.0 0.00 0.00 0.00 54 1022.9
20260906081857 45 139 0.0 0.9 0.00 0.00 0.00 54 1022.9
20260906081352 45 179 1.7 1.7 0.00 0.00 0.00 54 1022.8
20260906080848 45 73 0.9 0.9 0.00 0.00 0.00 54 1022.9
20260906080344 45 139 0.9 0.9 0.00 0.00 0.00 53 1023.0
20260906075843 46 87 0.9 0.9 0.00 0.00 0.00 52 1023.0
20260906075338 46 73 0.9 0.9 0.00 0.00 0.00 51 1022.9
20260906074834 46 101 0.0 0.0 0.00 0.00 0.00 51 1023.0
20260906074334 46 99 0.0 0.0 0.00 0.00 0.00 53 1022.8
20260906073832 46 106 0.0 0.0 0.00 0.00 0.00 53 1022.9
20260906073327 46 90 0.0 0.0 0.00 0.00 0.00 54 1023.0
20260906072824 45 273 1.7 1.7 0.00 0.00 0.00 56 1022.6
20260906072319 44 108 0.0 0.0 0.00 0.00 0.00 58 1022.9
20260906071815 43 52 0.9 1.7 0.00 0.00 0.00 59 1022.8
20260906071310 43 334 1.7 2.6 0.00 0.00 0.00 62 1022.8
20260906070807 43 14 2.6 2.6 0.00 0.00 0.00 63 1022.8
20260906070302 46 353 3.5 3.5 0.00 0.00 0.00 56 1022.9
20260906065801 46 176 0.9 1.7 0.00 0.00 0.00 53 1022.8
20260906065257 45 225 0.9 1.7 0.00 0.00 0.00 54 1022.9
20260906064752 46 251 1.7 1.7 0.00 0.00 0.00 53 1022.8
20260906064248 50 335 1.7 2.6 0.00 0.00 0.00 45 1022.8
20260906063743 50 332 1.7 2.6 0.00 0.00 0.00 44 1022.6
20260906063238 49 34 0.9 0.9 0.00 0.00 0.00 45 1022.8
20260906062733 49 75 0.9 0.9 0.00 0.00 0.00 46 1022.8
20260906062227 49 92 0.0 0.9 0.00 0.00 0.00 47 1022.6
20260906061723 49 100 0.0 0.0 0.00 0.00 0.00 47 1022.6
20260906061220 49 27 1.7 2.6 0.00 0.00 0.00 46 1022.5
20260906060715 50 64 2.6 2.6 0.00 0.00 0.00 45 1022.5
20260906060212 50 1 3.5 5.2 0.00 0.00 0.00 44 1022.8
20260906055708 50 40 3.5 3.5 0.00 0.00 0.00 44 1022.5
20260906055203 50 11 3.5 3.5 0.00 0.00 0.00 43 1022.8
20260906054658 50 11 2.6 2.6 0.00 0.00 0.00 43 1022.8
20260906054157 51 45 0.9 1.7 0.00 0.00 0.00 41 1022.8
20260906053654 51 16 0.9 0.9 0.00 0.00 0.00 41 1022.8
20260906053149 51 76 0.9 0.9 0.00 0.00 0.00 41 1022.6
20260906052645 51 57 0.9 0.9 0.00 0.00 0.00 42 1022.9
20260906052141 51 53 1.7 1.7 0.00 0.00 0.00 42 1023.0
20260906051637 51 90 0.0 0.0 0.00 0.00 0.00 41 1022.9
20260906051137 51 62 0.9 1.7 0.00 0.00 0.00 42 1022.9
20260906050633 51 129 0.0 0.0 0.00 0.00 0.00 43 1022.9
20260906050128 50 124 0.0 0.0 0.00 0.00 0.00 43 1022.8
20260906045626 51 103 0.0 0.0 0.00 0.00 0.00 43 1022.8
20260906045121 51 53 1.7 1.7 0.00 0.00 0.00 43 1022.6
20260906044617 51 100 0.0 0.0 0.00 0.00 0.00 43 1022.6
20260906044112 51 26 1.7 2.6 0.00 0.00 0.00 44 1022.6
20260906043609 52 65 0.9 0.9 0.00 0.00 0.00 44 1022.5
20260906043104 52 7 2.6 2.6 0.00 0.00 0.00 44 1022.5
20260906042603 52 1 2.6 2.6 0.00 0.00 0.00 45 1022.8
20260906042058 53 336 1.7 1.7 0.00 0.00 0.00 43 1022.6
20260906041554 53 44 1.7 1.7 0.00 0.00 0.00 43 1022.8
20260906041048 53 35 2.6 2.6 0.00 0.00 0.00 42 1022.5
20260906040543 53 328 2.6 2.6 0.00 0.00 0.00 42 1022.5
20260906040034 53 356 2.6 2.6 0.00 0.00 0.00 40 1022.4
20260906035528 54 337 1.7 2.6 0.00 0.00 0.00 39 1022.8
20260906035024 55 89 0.0 0.0 0.00 0.00 0.00 38 1022.5
20260906034519 56 81 0.9 0.9 0.00 0.00 0.00 37 1022.4
20260906034014 57 100 0.0 0.0 0.00 0.00 0.00 36 1022.4
20260906033508 57 87 0.0 0.0 0.00 0.00 0.00 37 1022.4
20260906033004 58 90 0.0 0.9 0.00 0.00 0.00 37 1022.4
20260906032500 59 71 0.9 0.9 0.00 0.00 0.00 35 1022.0
20260906031959 59 42 0.9 0.9 0.00 0.00 0.00 35 1022.3
20260906031450 58 104 0.0 0.0 0.00 0.00 0.00 36 1022.2
20260906030945 58 355 1.7 1.7 0.00 0.00 0.00 36 1022.3
20260906030439 59 59 0.9 0.9 0.00 0.00 0.00 36 1022.0
20260906025934 61 93 0.0 0.9 0.00 0.00 0.00 31 1022.2
20260906025428 61 161 0.9 1.7 0.00 0.00 0.00 31 1022.2
20260906024927 62 289 0.9 1.7 0.00 0.00 0.00 32 1021.9
20260906024427 62 269 3.5 3.5 0.00 0.00 0.00 31 1021.9
20260906023922 64 63 0.9 0.9 0.00 0.00 0.00 31 1022.0
20260906023418 66 103 0.0 0.0 0.00 0.00 0.00 28 1021.8
20260906022918 66 130 0.0 0.9 0.00 0.00 0.00 26 1021.8
20260906022413 67 134 0.0 0.9 0.00 0.00 0.00 26 1021.7
20260906021909 67 155 0.9 1.7 0.00 0.00 0.00 26 1021.8
20260906021409 67 146 0.9 1.7 0.00 0.00 0.00 26 1021.7
20260906020903 67 184 1.7 1.7 0.00 0.00 0.00 27 1021.7
20260906020403 68 184 1.7 1.7 0.00 0.00 0.00 26 1021.5
20260906015857 69 207 0.9 1.7 0.00 0.00 0.00 26 1021.8
20260906015356 69 150 1.7 2.6 0.00 0.00 0.00 26 1021.9
20260906014856 69 216 2.6 2.6 0.00 0.00 0.00 25 1021.5
20260906014356 70 206 2.6 2.6 0.00 0.00 0.00 25 1021.5
20260906013852 71 199 2.6 2.6 0.00 0.00 0.00 25 1021.7
20260906013348 72 184 2.6 2.6 0.00 0.00 0.00 24 1021.7
20260906012843 73 216 4.3 5.2 0.00 0.00 0.00 24 1021.8
20260906012338 74 203 5.2 6.1 0.00 0.00 0.00 23 1021.9
20260906011832 74 200 4.3 5.2 0.00 0.00 0.00 23 1022.0
20260906011327 74 228 4.3 6.1 0.00 0.00 0.00 23 1021.8
20260906010823 75 181 3.5 3.5 0.00 0.00 0.00 24 1021.9
20260906010319 76 211 4.3 6.1 0.00 0.00 0.00 23 1021.9
20260906005814 76 224 3.5 3.5 0.00 0.00 0.00 22 1021.9
20260906005313 77 204 7.8 9.6 0.00 0.00 0.00 22 1021.8
20260906004813 77 197 5.2 7.8 0.00 0.00 0.00 22 1021.9
20260906004312 77 197 9.6 12.2 0.00 0.00 0.00 20 1021.9
20260906003808 77 226 13.0 16.5 0.00 0.00 0.00 21 1022.0
20260906003303 78 199 9.6 12.2 0.00 0.00 0.00 21 1021.9
20260906002759 78 204 6.1 7.8 0.00 0.00 0.00 21 1021.9
20260906002258 78 213 7.8 8.7 0.00 0.00 0.00 21 1021.9
20260906001754 79 187 4.3 5.2 0.00 0.00 0.00 20 1022.0
20260906001254 78 183 5.2 7.0 0.00 0.00 0.00 20 1021.9
20260906000749 78 204 9.6 12.2 0.00 0.00 0.00 19 1021.9
20260906000244 78 184 10.4 12.2 0.00 0.00 0.00 20 1021.9
20260905235739 79 179 6.1 7.8 0.00 0.00 0.00 20 1021.8
20260905235238 79 197 7.0 7.8 0.00 0.00 0.00 19 1021.7
20260905234734 79 182 7.0 7.8 0.00 0.00 0.00 19 1021.9
20260905234229 79 193 6.1 7.0 0.00 0.00 0.00 19 1021.7
20260905233724 79 224 10.4 12.2 0.00 0.00 0.00 20 1021.8
20260905233223 79 212 10.4 13.0 0.00 0.00 0.00 19 1021.8
20260905232719 80 199 9.6 11.3 0.00 0.00 0.00 19 1021.7
20260905232214 79 195 7.8 7.8 0.00 0.00 0.00 19 1021.8
20260905231710 79 197 9.6 11.3 0.00 0.00 0.00 19 1021.9
20260905231205 79 215 9.6 11.3 0.00 0.00 0.00 19 1021.9